Location: Bakhuizen
(52.8696°N, 5.4575°E)
Time: 20:44:53
(UTC+00:00)

SJ 16-02 - Pass Details

Date: 11 May 2021
Orbit: 606 x 616 km, 75.0° (Epoch: 21 June)

Event Time Altitude Azimuth Distance (km) Brightness Sun altitude
Rises 22:57:02 0° 246° (WSW) 2,884 4.6 -18.5°
Reaches altitude 10° 22:59:47 10° 263° (W) 1,983 4.0 -18.6°
Maximum altitude 23:03:06 20° 312° (NW) 1,429 3.8 -18.7°
Drops below altitude 10° 23:06:26 10° 1° (N) 1,991 5.2 -18.7°
Sets 23:09:12 0° 18° (NNE) 2,900 6.0 -18.8°
